Location: Waco, TX
(31.5480°N, 97.1670°W)
Time: 10:28:53
(UTC-05:00)

ISS - Pass Details

Date: 10 March 2018
Orbit: 402 x 408 km, 51.6° (Epoch: 23 June)

Event Time Altitude Azimuth Distance (km) Brightness Sun altitude
Rises 09:35:53 0° 308° (NW) 2,327 -0.5 33.9°
Reaches altitude 10° 09:38:01 10° 302° (WNW) 1,462 -1.4 34.2°
Maximum altitude 09:41:09 43° 229° (SW) 574 -2.8 34.8°
Drops below altitude 10° 09:44:15 10° 156° (SSE) 1,448 -0.1 35.4°
Sets 09:46:22 0° 149° (SSE) 2,301 0.8 35.8°
